Weather History for Bishop, CA

Change the Weather History Date:

Sunday, June 2, 2013

  Actual Average Record
Temperature  
Mean Temperature 75 °F 68 °F  
Max Temperature 98 °F 88 °F 100 °F (2003)
Min Temperature 51 °F 48 °F 25 °F (2011)
Degree Days  
Heating Degree Days 0 2  
Month to date heating degree days 0 4  
Since 1 June heating degree days 0 4  
Since 1 July heating degree days 3851 4162  
Cooling Degree Days 10 5  
Month to date cooling degree days 19 9  
Year to date cooling degree days 105 77  
Since 1 June cooling degree days 19 9  
Growing Degree Days 26 (Base 50)    
Moisture  
Dew Point 25 °F    
Average Humidity 21    
Maximum Humidity 35    
Minimum Humidity 6    
Precipitation  
Precipitation 0.00 in 0.00 in 0.65 in (1985)
Month to date precipitation 0.00 0.01  
Year to date precipitation 0.47 2.89  
Snow  
Snow 0.00 in 0.00 in - ()
Month to date snowfall 0.0 0.0  
Since 1 June snowfall 0.0 0.0  
Since 1 July snowfall 2.8 6.8  
Snow Depth 0.00 in    
Sea Level Pressure  
Sea Level Pressure 29.65 in    
Wind  
Wind Speed 6 mph (NW)    
Max Wind Speed 23 mph    
Max Gust Speed 29 mph    
Visibility 10 miles    
Events      
T = Trace of Precipitation, MM = Missing Value Source: NWS Daily Summary

Daily Weather History Graph

Daily Weather History Graph

Search for Another Location

Airport:

Trip Planner

Search our weather history database for the weather conditions in past years. The results will help you decide how hot, cold, wet, or windy it might be!

Date:

Astronomy

Jun. 02, 2013 Rise Set
Actual Time 5:33 AM PDT 8:09 PM PDT
Civil Twilight 5:03 AM PDT 8:40 PM PDT
Nautical Twilight 4:25 AM PDT 9:18 PM PDT
Astronomical Twilight 3:43 AM PDT 10:00 PM PDT
Moon 1:56 AM PDT 2:50 PM PDT
Length of Visible Light 15h 36m
Length of Day
14h 35m
Waning Crescent, 30% of the Moon is Illuminated
Jun 2
Waning Crescent
Jun 8
New
Jun 16
First Quarter
Jun 23
Full
Jun 29
Last Quarter

Hourly Weather History & Observations

Time (PDT) Temp. Dew Point Humidity Pressure Visibility Wind Dir Wind Speed Gust Speed Precip Events Conditions
12:56 AM 64.0 °F 23.0 °F 21% 29.76 in 10.0 mi Calm Calm - N/A   Unknown
1:56 AM 63.0 °F 26.1 °F 25% 29.75 in 10.0 mi West 3.5 mph - N/A   Clear
2:56 AM 62.1 °F 25.0 °F 24% 29.74 in 10.0 mi West 3.5 mph - N/A   Clear
3:56 AM 54.0 °F 27.0 °F 35% 29.75 in 10.0 mi NNW 3.5 mph - N/A   Clear
4:56 AM 55.0 °F 27.0 °F 34% 29.74 in 10.0 mi North 6.9 mph - N/A   Clear
5:56 AM 57.0 °F 28.9 °F 34% 29.75 in 10.0 mi WNW 4.6 mph - N/A   Clear
6:56 AM 63.0 °F 28.9 °F 28% 29.74 in 10.0 mi NW 4.6 mph - N/A   Clear
7:56 AM 70.0 °F 28.9 °F 22% 29.73 in 10.0 mi Variable 3.5 mph - N/A   Clear
8:56 AM 77.0 °F 28.0 °F 17% 29.72 in 10.0 mi Calm Calm - N/A   Clear
9:56 AM 82.9 °F 28.0 °F 14% 29.70 in 10.0 mi Calm Calm - N/A   Clear
10:56 AM 87.1 °F 24.1 °F 10% 29.68 in 10.0 mi Calm Calm - N/A   Unknown
11:56 AM 90.0 °F 21.0 °F 8% 29.64 in 10.0 mi South 4.6 mph 16.1 mph N/A   Unknown
12:56 PM 91.9 °F 19.9 °F 7% 29.62 in 10.0 mi Calm Calm - N/A   Unknown
1:56 PM 95.0 °F 19.9 °F 7% 29.60 in 10.0 mi NNE 6.9 mph - N/A   Unknown
2:56 PM 96.1 °F 19.0 °F 6% 29.58 in 10.0 mi NNW 5.8 mph - N/A   Unknown
3:56 PM 96.1 °F 19.9 °F 6% 29.57 in 10.0 mi Variable 3.5 mph - N/A   Unknown
4:56 PM 95.0 °F 18.0 °F 6% 29.55 in 10.0 mi Variable 4.6 mph - N/A   Unknown
5:56 PM 93.9 °F 24.1 °F 8% 29.54 in 10.0 mi West 18.4 mph 25.3 mph N/A   Unknown
6:56 PM 91.0 °F 25.0 °F 9% 29.54 in 10.0 mi West 19.6 mph 26.5 mph N/A   Unknown
7:56 PM 87.1 °F 28.0 °F 12% 29.55 in 10.0 mi West 10.4 mph - N/A   Unknown
8:56 PM 80.1 °F 30.9 °F 17% 29.57 in 10.0 mi North 12.7 mph - N/A   Unknown
9:56 PM 75.0 °F 30.0 °F 19% 29.60 in 10.0 mi NW 6.9 mph - N/A   Unknown
10:56 PM 73.0 °F 30.0 °F 20% 29.63 in 10.0 mi North 9.2 mph - N/A   Unknown
11:56 PM 73.0 °F 32.0 °F 22% 29.64 in 10.0 mi WSW 4.6 mph - N/A   Unknown